This is the latest recevied weather packets stored in our database for station/object K7YVO. If no packets are shown the sender has not sent any weather packets the latest 10 day(s).
| Time | Temp. | Humidity | Pressure | Rain* | Wind** | Luminosity | Snow |
|---|---|---|---|---|---|---|---|
| 1778193728 | 21.67° C | 45% | 1019.8 hPa | 0 mm | - | 566 W/m² | - |
| 1778193424 | 21.11° C | 44% | 1020 hPa | 0 mm | - | 581 W/m² | - |
| 1778193121 | 20.56° C | 44% | 1020 hPa | 0 mm | - | 656 W/m² | - |
| 1778192818 | 20° C | 43% | 1019.8 hPa | 0 mm | - | 537 W/m² | - |
| 1778192514 | 20° C | 42% | 1019.8 hPa | 0 mm | - | 358 W/m² | - |
| 1778192210 | 20.56° C | 44% | 1020 hPa | 0 mm | - | 628 W/m² | - |
| 1778191907 | 21.67° C | 44% | 1020 hPa | 0 mm | - | 658 W/m² | - |
| 1778191604 | 20° C | 45% | 1020.1 hPa | 0 mm | - | 666 W/m² | - |
| 1778191302 | 20° C | 46% | 1020 hPa | 0 mm | - | 663 W/m² | - |
| 1778190997 | 20° C | 45% | 1020 hPa | 0 mm | - | 664 W/m² | - |
| 1778190695 | 20° C | 45% | 1020.4 hPa | 0 mm | - | 632 W/m² | - |
| 1778190392 | 19.44° C | 48% | 1020.3 hPa | 0 mm | - | 704 W/m² | - |
| 1778190089 | 18.89° C | 50% | 1020.4 hPa | 0 mm | - | 705 W/m² | - |
| 1778189785 | 19.44° C | 49% | 1020.4 hPa | 0 mm | - | 701 W/m² | - |
| 1778189483 | 19.44° C | 50% | 1020.4 hPa | 0 mm | - | 710 W/m² | - |
| 1778189178 | 18.33° C | 52% | 1020.5 hPa | 0 mm | - | 726 W/m² | - |
| 1778188875 | 18.33° C | 52% | 1020.6 hPa | 0 mm | - | 746 W/m² | - |
| 1778188572 | 18.89° C | 52% | 1020.5 hPa | 0 mm | - | 555 W/m² | - |
| 1778188268 | 18.89° C | 51% | 1020.5 hPa | 0 mm | - | 747 W/m² | - |
| 1778187966 | 17.78° C | 54% | 1020.6 hPa | 0 mm | - | 749 W/m² | - |
| 1778187662 | 18.33° C | 54% | 1020.8 hPa | 0 mm | - | 748 W/m² | - |
| 1778187359 | 18.89° C | 54% | 1020.7 hPa | 0 mm | - | 691 W/m² | - |
| 1778187055 | 18.33° C | 54% | 1020.8 hPa | 0 mm | - | 748 W/m² | - |
| 1778186751 | 17.78° C | 56% | 1020.9 hPa | 0 mm | - | 771 W/m² | - |
| 1778186449 | 18.33° C | 55% | 1020.8 hPa | 0 mm | - | 756 W/m² | - |
* Rain latest hour (hover to see other rain measurements)
** Current wind speed in m/s (hover to see current wind gust speed)